{"data":{"norad_id":65445,"epoch":"2026-09-20T13:03:43.200864Z","epoch_age_seconds":111047,"freshness":"FRESH","line1":"1 65445U 25194M   26263.54425001  .00011987  00000+0  37287-3 0  9990","line2":"2 65445  97.2847 113.1735 0003384  83.9912 276.1716 15.33455272 59072","mean_motion":15.33455272,"eccentricity":0.0003384,"inclination_deg":97.2847,"raan_deg":113.1735,"arg_perigee_deg":83.9912,"mean_anomaly_deg":276.1716,"bstar":0.00037287,"rev_number":5907,"period_min":93.905575616946,"perigee_km":463.19672137486,"apogee_km":467.82850343254,"semimajor_km":6843.6496124037,"source":"CELESTRAK","updated_at":"2026-09-21T09:00:35.610627Z"}}